Weather History for KLYV - February, 2012

Change the Weather History Date:

Monday, February 20, 2012

  Actual Average (KFSD) Record (KFSD)
Temperature  
Mean Temperature 34 °F 23 °F  
Max Temperature 35 °F 33 °F 65 °F (1981)
Min Temperature 32 °F 13 °F -19 °F (1918)
Degree Days  
Heating Degree Days 32 42  
Month to date heating degree days 897  
Since 1 July heating degree days 5529  
Cooling Degree Days 0 0  
Month to date cooling degree days 0  
Year to date cooling degree days 0  
Moisture  
Dew Point 29 °F    
Average Humidity 85    
Maximum Humidity 93    
Minimum Humidity 69    
Precipitation  
Precipitation 0.11 in 0.02 in 0.81 in (1953)
Month to date precipitation 0.38  
Year to date precipitation 0.94  
Snow  
Snow 0.00 in 0.20 in 7.10 in (1953)
Month to date snowfall 4.8  
Since 1 July snowfall 29.4  
Snow Depth -    
Sea Level Pressure  
Sea Level Pressure 29.77 in    
Wind  
Wind Speed 13 mph (SSE)    
Max Wind Speed 20 mph    
Max Gust Speed 28 mph    
Visibility 6 miles    
Events Rain , Snow    
T = Trace of Precipitation, MM = Missing Value Source: NWS Daily Summary

Daily Weather History Graph

Daily Weather History Graph

Search for Another Location

Airport or City:

Trip Planner

Search our weather history database for the weather conditions in past years. The results will help you decide how hot, cold, wet, or windy it might be!

Date:

Astronomy

Feb. 20, 2012 Rise Set
Actual Time 7:16 AM CST 6:01 PM CST
Civil Twilight 6:47 AM CST 6:30 PM CST
Nautical Twilight 6:14 AM CST 7:03 PM CST
Astronomical Twilight 5:40 AM CST 7:37 PM CST
Moon 6:15 AM CST (2/20) 5:06 PM CST (2/20)
Length of Visible Light 11h 43m
Length of Day
10h 44m
Waning Crescent, 1% of the Moon is Illuminated
Feb 20
Waning Crescent
Feb 21
New
Feb 29
First Quarter
Mar 8
Full
Mar 14
Last Quarter

Hourly Weather History & Observations

Time (CST) Temp. Windchill Dew Point Humidity Pressure Visibility Wind Dir Wind Speed Gust Speed Precip Events Conditions
12:17 AM 32.0 °F 23.0 °F 26.6 °F 80% 29.95 in 10.0 mi SSE 11.5 mph - N/A   Overcast
12:37 AM 32.0 °F 23.0 °F 26.6 °F 80% 29.95 in 10.0 mi South 11.5 mph 17.3 mph N/A   Overcast
12:57 AM 33.8 °F 24.8 °F 26.6 °F 75% 29.96 in 10.0 mi SSE 12.7 mph 17.3 mph N/A   Overcast
1:16 AM 32.0 °F 22.5 °F 26.6 °F 80% 29.95 in 10.0 mi SSE 12.7 mph 19.6 mph N/A   Overcast
1:37 AM 32.0 °F 23.0 °F 26.6 °F 80% 29.95 in 10.0 mi SSE 11.5 mph - N/A   Overcast
1:57 AM 32.0 °F 23.6 °F 26.6 °F 80% 29.94 in 10.0 mi SSE 10.4 mph - N/A   Overcast
2:16 AM 32.0 °F 23.0 °F 26.6 °F 80% 29.94 in 10.0 mi SSE 11.5 mph - N/A   Overcast
2:37 AM 32.0 °F 23.6 °F 26.6 °F 80% 29.93 in 10.0 mi SSE 10.4 mph - N/A   Mostly Cloudy
2:57 AM 32.0 °F 22.5 °F 26.6 °F 80% 29.92 in 10.0 mi SSE 12.7 mph - N/A   Overcast
3:16 AM 32.0 °F 22.5 °F 26.6 °F 80% 29.92 in 10.0 mi SSE 12.7 mph - N/A   Overcast
3:37 AM 32.0 °F 22.5 °F 26.6 °F 80% 29.92 in 10.0 mi SSE 12.7 mph 17.3 mph N/A   Overcast
3:57 AM 32.0 °F 22.5 °F 26.6 °F 80% 29.91 in 10.0 mi SSE 12.7 mph - N/A   Overcast
4:16 AM 32.0 °F 22.1 °F 26.6 °F 80% 29.90 in 10.0 mi SSE 13.8 mph 19.6 mph N/A   Overcast
4:37 AM 32.0 °F 23.6 °F 24.8 °F 75% 29.90 in 10.0 mi SSE 10.4 mph - N/A   Overcast
4:56 AM 32.0 °F 22.5 °F 24.8 °F 75% 29.90 in 10.0 mi SSE 12.7 mph 19.6 mph N/A   Overcast
5:17 AM 32.0 °F 22.1 °F 24.8 °F 75% 29.89 in 10.0 mi SSE 13.8 mph 19.6 mph N/A   Overcast
5:37 AM 32.0 °F 22.5 °F 24.8 °F 75% 29.88 in 10.0 mi SSE 12.7 mph 20.7 mph N/A   Overcast
6:17 AM 32.0 °F 21.6 °F 24.8 °F 75% 29.86 in 10.0 mi SE 15.0 mph 24.2 mph N/A   Overcast
6:37 AM 32.0 °F 23.0 °F 24.8 °F 75% 29.87 in 10.0 mi SSE 11.5 mph 20.7 mph N/A   Overcast
6:56 AM 32.0 °F 20.5 °F 24.8 °F 75% 29.86 in 10.0 mi SE 18.4 mph 23.0 mph N/A   Overcast
7:17 AM 32.0 °F 21.2 °F 23.0 °F 69% 29.85 in 10.0 mi SE 16.1 mph 21.9 mph N/A   Overcast
7:37 AM 32.0 °F 20.8 °F 24.8 °F 75% 29.84 in 10.0 mi SE 17.3 mph 20.7 mph N/A   Overcast
8:36 AM 32.0 °F 20.5 °F 24.8 °F 75% 29.81 in 10.0 mi SE 18.4 mph 23.0 mph N/A   Overcast
8:56 AM 32.0 °F 20.1 °F 23.0 °F 69% 29.81 in 10.0 mi SE 19.6 mph 26.5 mph N/A   Overcast
9:17 AM 32.0 °F 21.2 °F 24.8 °F 75% 29.80 in 10.0 mi SE 16.1 mph 25.3 mph N/A   Overcast
9:36 AM 32.0 °F 21.6 °F 24.8 °F 75% 29.80 in 10.0 mi SSE 15.0 mph 24.2 mph N/A   Overcast
9:56 AM 32.0 °F 21.6 °F 26.6 °F 80% 29.80 in 10.0 mi SSE 15.0 mph 21.9 mph N/A Rain Light Rain
10:17 AM 32.0 °F 20.5 °F 26.6 °F 80% 29.80 in 4.0 mi SSE 18.4 mph 23.0 mph N/A Snow Light Snow
10:37 AM 32.0 °F 21.6 °F 28.4 °F 87% 29.78 in 1.0 mi SSE 15.0 mph 21.9 mph N/A Snow Light Snow
10:55 AM 32.0 °F 22.1 °F 28.4 °F 87% 29.78 in 0.5 mi SE 13.8 mph 19.6 mph 0.03 in Snow Snow
11:17 AM 32.0 °F 21.6 °F 30.2 °F 93% 29.76 in 4.0 mi SE 15.0 mph 24.2 mph 0.03 in Snow Light Snow
11:36 AM 32.0 °F 21.2 °F 30.2 °F 93% 29.75 in 3.0 mi SSE 16.1 mph 21.9 mph 0.06 in Rain Light Rain
11:55 AM 33.8 °F 23.9 °F 32.0 °F 93% 29.74 in 4.0 mi SSE 15.0 mph 23.0 mph 0.06 in Rain Light Rain
12:17 PM 33.8 °F 23.5 °F 32.0 °F 93% 29.72 in 3.0 mi SSE 16.1 mph 24.2 mph N/A Rain Light Rain
12:37 PM 33.8 °F 23.2 °F 32.0 °F 93% 29.72 in 2.0 mi SSE 17.3 mph 24.2 mph N/A Rain Light Rain
12:56 PM 33.8 °F 23.2 °F 32.0 °F 93% 29.71 in 4.0 mi SSE 17.3 mph 27.6 mph N/A Rain Light Rain
1:17 PM 33.8 °F 22.5 °F 32.0 °F 93% 29.70 in 1.5 mi SSE 19.6 mph 25.3 mph N/A Rain Light Rain
1:36 PM 33.8 °F 23.9 °F 32.0 °F 93% 29.69 in 1.5 mi SSE 15.0 mph 25.3 mph N/A Rain Light Rain
1:55 PM 33.8 °F 23.5 °F 32.0 °F 93% 29.68 in 1.8 mi SSE 16.1 mph 23.0 mph 0.01 in Rain Light Rain
1:57 PM 33.8 °F 23.2 °F 32.0 °F 93% 29.67 in 1.8 mi SSE 17.3 mph 24.2 mph N/A Rain Light Rain
2:17 PM 33.8 °F 23.5 °F 32.0 °F 93% 29.66 in 1.8 mi SSE 16.1 mph 23.0 mph N/A Rain Light Rain
2:37 PM 33.8 °F 23.2 °F 32.0 °F 93% 29.65 in 2.0 mi SSE 17.3 mph 23.0 mph N/A Rain Light Rain
2:57 PM 33.8 °F 23.9 °F 32.0 °F 93% 29.65 in 1.5 mi SSE 15.0 mph 23.0 mph N/A Rain Light Rain
3:16 PM 33.8 °F 23.5 °F 32.0 °F 93% 29.64 in 1.8 mi SSE 16.1 mph 20.7 mph N/A Rain Light Rain
3:37 PM 33.8 °F 23.5 °F 32.0 °F 93% 29.63 in 1.8 mi SSE 16.1 mph 20.7 mph N/A Rain Light Rain
3:57 PM 35.6 °F 25.9 °F 33.8 °F 93% 29.63 in 2.0 mi SSE 16.1 mph 20.7 mph N/A Rain Light Rain
4:16 PM 35.6 °F 26.2 °F 33.8 °F 93% 29.63 in 2.0 mi SSE 15.0 mph 23.0 mph N/A Rain Light Rain
4:37 PM 35.6 °F 25.9 °F 33.8 °F 93% 29.62 in 2.0 mi SSE 16.1 mph 24.2 mph N/A Rain Rain
4:57 PM 35.6 °F 27.1 °F 33.8 °F 93% 29.61 in 2.0 mi SSE 12.7 mph 23.0 mph N/A Rain Light Rain
5:16 PM 35.6 °F 26.2 °F 33.8 °F 93% 29.61 in 2.5 mi SSE 15.0 mph 21.9 mph N/A Rain Rain
5:37 PM 35.6 °F 25.9 °F 33.8 °F 93% 29.61 in 4.0 mi SSE 16.1 mph 23.0 mph N/A   Light Drizzle
5:57 PM 35.6 °F 25.2 °F 33.8 °F 93% 29.60 in 4.0 mi SSE 18.4 mph 24.2 mph N/A Rain Light Rain
6:37 PM 35.6 °F 25.9 °F 33.8 °F 93% 29.60 in 7.0 mi SSE 16.1 mph - N/A   Light Drizzle
6:57 PM 35.6 °F 26.6 °F 33.8 °F 93% 29.60 in 7.0 mi South 13.8 mph 19.6 mph N/A   Overcast
7:16 PM 35.6 °F 27.1 °F 33.8 °F 93% 29.61 in 7.0 mi South 12.7 mph 20.7 mph N/A   Drizzle
7:37 PM 35.6 °F 29.2 °F 33.8 °F 93% 29.63 in 5.0 mi WSW 8.1 mph - N/A Rain Rain
7:57 PM 35.6 °F 32.8 °F 33.8 °F 93% 29.62 in 3.0 mi SSW 3.5 mph - N/A Rain Rain
8:16 PM 35.6 °F - 33.8 °F 93% 29.61 in 3.0 mi Calm Calm - N/A Rain Rain
8:37 PM 33.8 °F - 32.0 °F 93% 29.61 in 5.0 mi Calm Calm - N/A   Drizzle
8:55 PM 33.8 °F - 32.0 °F 93% 29.60 in 2.0 mi Calm Calm - 0.01 in   Drizzle
9:16 PM 33.8 °F - 32.0 °F 93% 29.60 in 1.2 mi Calm Calm - N/A   Light Drizzle
9:37 PM 33.8 °F - 32.0 °F 93% 29.60 in 0.8 mi Calm Calm - N/A Rain Heavy Rain
9:55 PM 33.8 °F 30.8 °F 32.0 °F 93% 29.60 in 0.8 mi SW 3.5 mph - 0.01 in   Overcast
9:57 PM 33.8 °F 29.6 °F 32.0 °F 93% 29.60 in 0.8 mi SW 4.6 mph - N/A   Overcast
10:16 PM 33.8 °F 25.8 °F 33.8 °F 100% 29.60 in 2.0 mi West 10.4 mph - N/A   Overcast
10:37 PM 33.8 °F 25.8 °F 32.0 °F 93% 29.60 in 5.0 mi WNW 10.4 mph - N/A   Overcast
10:56 PM 33.8 °F 25.3 °F 32.0 °F 93% 29.60 in 5.0 mi WNW 11.5 mph - N/A   Overcast
11:17 PM 33.8 °F 25.8 °F 32.0 °F 93% 29.61 in 7.0 mi WNW 10.4 mph - N/A   Overcast
11:36 PM 33.8 °F 24.8 °F 32.0 °F 93% 29.61 in 10.0 mi NW 12.7 mph 17.3 mph N/A   Overcast
11:56 PM 33.8 °F 26.4 °F 32.0 °F 93% 29.62 in 10.0 mi NW 9.2 mph - N/A   Overcast